Location: Newark
(54.3833°N, 10.0000°E)
Time: 21:19:04
(UTC+00:00)

ISS - Visible Passes

Search period start: 15 December 2019 00:00
Search period end: 25 December 2019 00:00
Orbit: 411 x 421 km, 51.6° (Epoch: 16 December)

Date Brightness Start Highest point End Pass type
(mag) Time Alt. Az. Time Alt. Az. Time Alt. Az.
22 Dec -0.6 06:09:25 10° S 06:11:10 14° SE 06:12:55 10° ESE visible
23 Dec -1.7 06:55:50 10° SW 06:58:48 30° SSE 07:01:47 10° E visible
24 Dec -1.4 06:07:39 10° SSW 06:10:22 24° SSE 06:13:06 10° E visible
